Regional Weather Roundup
Issued by NWS

Home | Current Version | Previous Version | Graphics & Text | Print | Product List | Glossary On
Versions: 1 2 3 4 5 6 7 8 9 10 11 12 13 14 15 16 17 18 19 20 21 22 23 24 25 26 27 28 29 30 31 32 33 34 35 36 37 38 39 40 41 42 43 44 45 46 47 48 49 50
000
ASUS43 KLMK 120302
RWRKY
KENTUCKY REGIONAL WEATHER ROUNDUP
NATIONAL WEATHER SERVICE LOUISVILLE KY
1000 PM EST THU FEB 11 2016

NOTE "FAIR" INDICATES FEW OR NO CLOUDS BELOW 12,000 FEET
WITH NO SIGNIFICANT WEATHER AND/OR OBSTRUCTIONS TO VISIBILITY.

KYZ001>023-026-027-061>063-070>075-120400-
WESTERN AND SOUTH CENTRAL KENTUCKY

CITY           SKY/WX    TMP DP  RH WIND       PRES   REMARKS
PADUCAH        CLOUDY    32  18  56 NE7       30.28R WCI  26
HENDERSON      CLOUDY    28  12  50 E6        30.30R WCI  22
OWENSBORO      CLOUDY    29  12  49 CALM      30.30F
HOPKINSVILLE   CLOUDY    31  18  57 NE6       30.25F WCI  25
BOWLING GREEN  CLOUDY    31  18  58 NE3       30.29F
GLASGOW        NOT AVBL
$$

KYZ024-025-028>034-038-045-046-053-120400-
NORTH CENTRAL KENTUCKY

CITY           SKY/WX    TMP DP  RH WIND       PRES   REMARKS
LOUISVILLE/SDF CLOUDY    28   8  43 E7        30.29F WCI  21
LOUISVILLE/LOU CLOUDY    27   9  46 E7        30.30F WCI  19
FORT KNOX      CLOUDY    27  11  51 E7        30.25F WCI  20
$$

KYZ035>037-039>044-047>052-055>060-089>105-120400-
NORTHEAST KENTUCKY

CITY           SKY/WX    TMP DP  RH WIND       PRES   REMARKS
LEXINGTON      PTCLDY    23  15  71 NE6       30.29S WCI  16
COVINGTON      CLOUDY    20   7  57 CALM      30.29F
FRANKFORT      PTCLDY    25  10  53 NE6       30.29F WCI  18
$$

KYZ054-064>069-076>088-106>120-120400-
SOUTHEAST KENTUCKY

CITY           SKY/WX    TMP DP  RH WIND       PRES   REMARKS
JACKSON        CLOUDY    23   9  55 N3        30.27R
LONDON         CLOUDY    26  10  50 NE7       30.26F WCI  18
SOMERSET       NOT AVBL
MIDDLESBORO    NOT AVBL
MONTICELLO     CLOUDY    28  18  66 W5        30.29F WCI  23
$$




USA.gov is the U.S. government's official web portal to all federal, state and local government web resources and services.